Location: Allaines
(49.9632°N, 2.9458°E)
Time: 10:06:36
(UTC+00:00)

Abrixas rocket - Pass Details

Date: 09 April 2020
Orbit: 344 x 351 km, 48.4° (Epoch: 06 June)

Event Time Altitude Azimuth Distance (km) Brightness Sun altitude
Rises 19:56:27 0° 277° (W) 2,167 7.2 -13.2°
Reaches altitude 10° 19:58:37 10° 265° (W) 1,325 5.6 -13.5°
Maximum altitude 20:01:13 28° 204° (SSW) 703 3.3 -13.9°
Enters shadow 20:02:14 22° 168° (SSE) 828 3.3 -14.0°
